CZ-6A DEB

Satellite information

Favourite Embed

Satellite Type and Status

DEBRISIN ORBIT

Key statistics

Satellite CZ-6A DEB at a glance.

Uptime

274

Days in orbit

Revolutions

≈ 14.4

Per day

Orbit

LEO

Low Earth Orbit

Inclination

88.9

Latest

Satellite identification and parameters

Extended collection of information and parameters for CZ-6A DEB.

Object identification

Identified? True

Debris? True

Object name: CZ-6A DEB

International designator: 2024-140GV

Object number (NORAD): 60818

Object ID (CCSDS): 60818

Country: PEOPLES REPUBLIC OF CHINA (PRC)

Current information (Y/N): Y

RCS size: MEDIUM

Orbital parameters

Period: 99.748 minutes

Inclination: 88.8944 deg

SMA: 7124.632 km

Apoapsis: 775.595 km

Periapsis: 717.398 km

RAAN: 315.8254 deg

Eccentricy: 0.0040842

Argument of periapsis: 209.8574 deg

Mean anomaly: 150.03 deg

Mean motion: 14.43640777 rev/day

Mean motion (dot): 0.00005116 rev/day2

B* drag term: 0.0014888 1/REarth

Two-line elements (TLE)

Creation date: May 7, 2025, 3:14 a.m.

Reference frame: TEME

Reference center: EARTH

Epoch: May 6, 2025, 3:04 p.m. UTC

TLE line 0: 0 CZ-6A DEB

TLE line 1: 1 60818U 24140GV 25126.62809010 .00005116 00000-0 14888-2 0 9990

TLE line 2: 2 60818 88.8944 315.8254 0040842 209.8574 150.0300 14.43640777 38471

Live tracking on map

Real-time ground track for satellite CZ-6A DEB.

In-orbit conjunctions

A list of the most updated potential collisions computed for object CZ-6A DEB.

Target Orbit TCA Probability of collision Miss distance Type
CZ-6A DEB SSO 2025-02-01 22:51:38 0.001705399 79.0 (m) DEBRIS
MINOTAUR DEB SSO 2024-11-14 06:07:12 0.0008579661 265.0 (m) DEBRIS
FENGYUN 1C DEB SSO 2024-11-09 13:27:57 0.0001610175 620.0 (m) DEBRIS
IRIDIUM 33 DEB LEO 2024-10-31 06:54:23 0.0001303955 393.0 (m) DEBRIS
FENGYUN 1C DEB SSO 2024-10-24 14:04:49 0.0003900811 57.0 (m) DEBRIS

Associated space launch

18 Low Earth Orbit communication satellites with Ku, Q and V band payloads for the G60 constellation operated by Shanghai Spacecom Satellite Technology (SSST) with funding backed by the Shanghai local government. Initial constellation will consist of 1296 satellites by 2027 with long term plans to expand it to 12000 satellites.

CZ-6A DEB was lifted into orbit during the mission ‘Long March 6A | G60 Polar Group 01’, on board a Long March 6A space rocket.

The launch took place on Aug. 6, 2024, 6:42 a.m. from Launch Complex 9A.

For more information about the launch, click the button.

Launch to space Long March 6A | G60 Polar Group 01
Long March 6A | G60 Polar Group 01

Agency: N/A

Status: Launch Successful

Launch date: Aug. 6, 2024, 6:42 a.m. UTC

Rocket: Long March 6A

Launch pad: Launch Complex 9A

Location: Taiyuan Satellite Launch Center, People's Republic of China

...

Latest news about this satellite

News about space launch
Brightness of first Chinese broadband constellation satellites alarms astronomers

The first satellites of a Chinese broadband constellation are significantly brighter than those of Western systems, posing a new challenge for astronomers.

News about space launch
Chinese rocket stage breaks up into cloud of more than 700 pieces of space debris

HELSINKI — A Chinese Long March 6A rocket’s upper stage has fragmented into a cloud of over 700 pieces of space debris, adding to concerns about long-term orbital safety. China […]

News about space launch
China's Thousand Sails Megaconstellation Kicks Off with Dangerous Debris Field

China's Thousand Sails Megaconstellation Kicks Off with Dangerous Debris Field


Newsletter sign-up

Weekly statistics, charts and insights to help you stay on top of the space industry.